| time (UTC) | temp F | wind direction | speed knots | gust knots | rain 1hr in | rain 24hr in | rain mn in | humidity % | barometer mb |
| 20260503203109 | 57 | 334 | 2.6 | 9.6 | 0.00 | 0.00 | 0.00 | 41 | 1011.3 |
| 20260503201559 | 57 | 355 | 2.6 | 8.7 | 0.00 | 0.00 | 0.00 | 45 | 1011.4 |
| 20260503200059 | 58 | 19 | 2.6 | 13.9 | 0.00 | 0.00 | 0.00 | 45 | 1011.7 |
| 20260503194557 | 57 | 360 | 1.7 | 7.8 | 0.00 | 0.00 | 0.00 | 47 | 1011.9 |
| 20260503193059 | 56 | 37 | 2.6 | 11.3 | 0.00 | 0.00 | 0.00 | 45 | 1012.2 |
| 20260503191605 | 56 | 329 | 2.6 | 10.4 | 0.00 | 0.00 | 0.00 | 47 | 1012.4 |
| 20260503190057 | 56 | 337 | 3.5 | 9.6 | 0.00 | 0.00 | 0.00 | 46 | 1012.6 |
| 20260503184634 | 56 | 40 | 3.5 | 9.6 | 0.00 | 0.00 | 0.00 | 45 | 1012.8 |
| 20260503183107 | 56 | 343 | 3.5 | 8.7 | 0.00 | 0.00 | 0.00 | 43 | 1012.9 |
| 20260503181556 | 56 | 41 | 2.6 | 9.6 | 0.00 | 0.00 | 0.00 | 45 | 1013.0 |
| 20260503180058 | 56 | 350 | 5.2 | 10.4 | 0.00 | 0.00 | 0.00 | 46 | 1013.2 |
| 20260503174616 | 56 | 344 | 1.7 | 10.4 | 0.00 | 0.00 | 0.00 | 46 | 1013.4 |
| 20260503173130 | 55 | 30 | 3.5 | 11.3 | 0.00 | 0.00 | 0.00 | 46 | 1013.5 |
| 20260503171559 | 55 | 208 | 1.7 | 13.9 | 0.00 | 0.00 | 0.00 | 46 | 1013.6 |
| 20260503150114 | 50 | 126 | 0.9 | 7.0 | 0.00 | 0.00 | 0.00 | 50 | 1014.5 |
| 20260503100107 | 28 | 0 | 0.0 | 0.0 | 0.00 | 0.01 | 0.00 | 87 | 1014.1 |
| 20260503090106 | 28 | 0 | 0.0 | 0.0 | 0.00 | 0.01 | 0.00 | 85 | 1014.0 |
| 20260503081600 | 28 | 0 | 0.0 | 0.0 | 0.00 | 0.01 | 0.00 | 85 | 1013.9 |
| 20260503071610 | 30 | 0 | 0.0 | 0.0 | 0.00 | 0.01 | 0.00 | 83 | 1013.8 |
| 20260503070114 | 30 | 0 | 0.0 | 0.0 | 0.00 | 0.01 | 0.00 | 82 | 1013.7 |
| 20260503060116 | 33 | 0 | 0.0 | 0.0 | 0.00 | 0.01 | 0.00 | 82 | 1013.9 |
| 20260503054601 | 34 | 0 | 0.0 | 0.0 | 0.00 | 0.01 | 0.00 | 83 | 1013.9 |
| 20260503053058 | 34 | 0 | 0.0 | 0.0 | 0.00 | 0.01 | 0.00 | 83 | 1014.0 |
| 20260503051559 | 34 | 0 | 0.0 | 0.0 | 0.00 | 0.01 | 0.00 | 83 | 1014.0 |
| 20260503044556 | 34 | 0 | 0.0 | 0.0 | 0.00 | 0.01 | 0.00 | 82 | 1014.2 |
| 20260503043059 | 34 | 0 | 0.0 | 0.0 | 0.00 | 0.01 | 0.00 | 82 | 1014.3 |
| 20260503041556 | 34 | 0 | 0.0 | 0.0 | 0.00 | 0.01 | 0.00 | 82 | 1014.2 |
| 20260503040057 | 34 | 0 | 0.0 | 0.0 | 0.00 | 0.01 | 0.00 | 82 | 1014.3 |
| 20260503034557 | 35 | 0 | 0.0 | 0.0 | 0.00 | 0.01 | 0.01 | 81 | 1014.3 |
| 20260503033100 | 35 | 0 | 0.0 | 0.0 | 0.00 | 0.01 | 0.01 | 81 | 1014.3 |
| 20260503031557 | 35 | 0 | 0.0 | 0.0 | 0.00 | 0.01 | 0.01 | 81 | 1014.5 |
| 20260503030058 | 35 | 0 | 0.0 | 0.0 | 0.00 | 0.01 | 0.01 | 80 | 1014.5 |
| 20260503024600 | 35 | 0 | 0.0 | 0.0 | 0.00 | 0.01 | 0.01 | 79 | 1014.6 |
| 20260503023055 | 36 | 0 | 0.0 | 0.0 | 0.00 | 0.01 | 0.01 | 79 | 1014.7 |
| 20260503021558 | 36 | 0 | 0.0 | 0.0 | 0.00 | 0.01 | 0.01 | 79 | 1014.7 |
| 20260503020105 | 37 | 0 | 0.0 | 1.7 | 0.00 | 0.01 | 0.01 | 77 | 1014.7 |
| 20260503014628 | 37 | 0 | 0.0 | 1.7 | 0.00 | 0.01 | 0.01 | 76 | 1014.6 |
| 20260503013058 | 37 | 0 | 0.0 | 1.7 | 0.00 | 0.01 | 0.01 | 76 | 1014.7 |
| 20260503011627 | 37 | 0 | 0.0 | 1.7 | 0.00 | 0.01 | 0.01 | 76 | 1014.5 |
| 20260503010058 | 37 | 130 | 0.0 | 0.9 | 0.00 | 0.01 | 0.01 | 76 | 1014.4 |
| 20260503004607 | 38 | 0 | 0.0 | 0.9 | 0.00 | 0.01 | 0.01 | 76 | 1014.3 |
| 20260503003107 | 39 | 0 | 0.0 | 0.9 | 0.00 | 0.01 | 0.01 | 74 | 1014.0 |
| 20260503001557 | 39 | 0 | 0.0 | 2.6 | 0.00 | 0.01 | 0.01 | 72 | 1013.9 |
| 20260503000105 | 39 | 0 | 0.0 | 1.7 | 0.00 | 0.01 | 0.01 | 71 | 1013.9 |
| 20260502234614 | 40 | 0 | 0.0 | 0.9 | 0.00 | 0.02 | 0.01 | 70 | 1013.9 |
| 20260502233059 | 40 | 150 | 0.0 | 1.7 | 0.00 | 0.02 | 0.01 | 70 | 1013.9 |
| 20260502231558 | 40 | 214 | 0.0 | 3.5 | 0.00 | 0.02 | 0.01 | 66 | 1013.8 |
| 20260502224559 | 41 | 157 | 0.9 | 4.3 | 0.00 | 0.03 | 0.01 | 63 | 1013.7 |
| 20260502223104 | 41 | 98 | 0.9 | 3.5 | 0.00 | 0.03 | 0.01 | 64 | 1013.7 |
| 20260502221557 | 41 | 180 | 1.7 | 6.1 | 0.00 | 0.03 | 0.01 | 62 | 1013.6 |
| 20260502214555 | 42 | 138 | 0.9 | 4.3 | 0.00 | 0.04 | 0.01 | 69 | 1013.5 |
| 20260502213054 | 41 | 182 | 0.0 | 6.1 | 0.00 | 0.04 | 0.01 | 70 | 1013.4 |
| 20260502211556 | 41 | 155 | 1.7 | 6.1 | 0.00 | 0.04 | 0.01 | 68 | 1013.4 |
| 20260502210054 | 41 | 180 | 0.9 | 6.1 | 0.00 | 0.04 | 0.01 | 72 | 1013.3 |
| 20260502204603 | 40 | 0 | 0.9 | 3.5 | 0.00 | 0.09 | 0.01 | 74 | 1013.4 |